Regional Weather Roundup
Issued by NWS

Home | Current Version | Previous Version | Text Only | Print | Product List | Glossary On
Versions: 1 2 3 4 5 6 7 8 9 10 11 12 13 14 15 16 17 18 19 20 21 22 23 24 25 26 27 28 29 30 31 32 33 34 35 36 37 38 39 40 41 42 43 44 45 46 47 48 49 50
000
ASCA44 KEWX 230311
RWRMX

LATIN AMERICA AND CARIBBEAN REGIONAL WEATHER ROUNDUP
NATIONAL WEATHER SERVICE AUSTIN/SAN ANTONIO TX
900 PM CST WED FEB 22 2017

NOTE: "FAIR" INDICATED FEW OR NO CLOUDS BELOW 12,000 FEET WITH NO
SIGNIFICANT WEATHER AND/OR OBSTRUCTIONS TO VISIBILITY.

BAJA CALIFORNIA

CITY           SKY/WX    TMP DP  RH WIND       PRES   REMARKS
LA PAZ         CLEAR     72  54  53 S9        29.94R
MEXICALI       BLWGDUST  63  28  27 W38       29.87R VSB 1
S.J. DEL CABO  CLEAR     66  61  82 CALM      29.92R
TIJUANA        PTCLDY    52  43  71 NW12      30.10S

NORTHWESTERN MEXICO

CITY           SKY/WX    TMP DP  RH WIND       PRES   REMARKS
CULIACAN       CLEAR     68  64  88 SE6       29.90R
DURANGO        CLEAR     59   3  10 SW5       30.12R
GUAYMAS          N/A    N/A N/A N/A MISG        N/A
HERMOSILLO     CLEAR     77  55  47 W5        29.86R
CD. JUAREZ     CLEAR     64  37  36 SW6       29.81S
LOS MOCHIS     CLEAR     68  61  77 W6        29.89R

NORTHEASTERN MEXICO

CITY           SKY/WX    TMP DP  RH WIND       PRES   REMARKS
CHIHUAHUA      CLEAR     66  21  18 SW12      29.95R
MONCLOVA         N/A    N/A N/A N/A MISG        N/A
MONTERREY      CLEAR     73  21  14 E7        29.83R
REYNOSA          N/A    N/A N/A N/A MISG        N/A
SALTILLO       CLEAR     68  37  32 VRB6      30.08S
TORREON        CLEAR     70  23  17 CALM      29.97
CD. VICTORIA     N/A    N/A N/A N/A MISG        N/A

WESTERN MEXICO

CITY           SKY/WX    TMP DP  RH WIND       PRES   REMARKS
AGUASCALIENTES CLEAR     64   1   8 NE3       30.16R
COLIMA         CLEAR     70  61  73 N7        30.00R
DEL BAJIO      CLEAR     61  21  21 N7        30.18R
GUADALAJARA    CLEAR     70  36  28 S7        30.08R
MAZATLAN       CLEAR     66  64  94 W3        29.93R
P. VALLARTA    MOCLDY    75  70  83 W3        29.93R
URUAPAN          N/A    N/A N/A N/A MISG        N/A
ZACATECAS      CLEAR     52   3  14 CALM      30.20R

CENTRAL MEXICO

CITY           SKY/WX    TMP DP  RH WIND       PRES   REMARKS
CUERNAVACA       N/A    N/A N/A N/A MISG        N/A
MEXICO CITY    CLEAR     66  21  18 N12       30.24R
MORELIA          N/A    N/A N/A N/A MISG        N/A
POZA RICA      CLEAR     75  57  53 CALM      29.92R
QUERETARO        N/A    N/A N/A N/A MISG        N/A
S. LUIS POTOSI CLEAR     61   7  11 SW6       30.16R
TAMPICO        CLEAR     73  64  73 S14       29.86R
TOLUCA         PTCLDY    59  34  38 NW6       30.31R

SOUTHERN MEXICO

CITY           SKY/WX    TMP DP  RH WIND       PRES   REMARKS
ACAPULCO       CLEAR     77  72  83 W7        29.87R
B. DE HUATULCO MOCLDY    79  61  53 W12       29.94R
P. ESCONDIDO     N/A    N/A N/A N/A MISG        N/A
VERACRUZ       PTCLDY    73  54  49 SW2       29.92R
ZIHUATANEJO    CLEAR     77  68  73 W6        29.88R

YUCATAN PENINSULA

CITY           SKY/WX    TMP DP  RH WIND       PRES   REMARKS
CAMPECHE       PTCLDY    77  63  61 W12G23    29.88S
CANCUN         PTCLDY    66  57  72 W5        29.86R
CHETUMAL       CLEAR     73  55  53 NW6       29.87R
CD. DEL CARMEN   N/A    N/A N/A N/A MISG        N/A
COZUMEL        PTCLDY    75  59  57 NW16      29.86R
MERIDA         PTCLDY    72  59  64 W7        29.89R
MINATITLAN       N/A    N/A N/A N/A MISG        N/A
TAPACHULA      MOCLDY    79  72  78 CALM      29.87R
TUX. GUTIERREZ CLEAR     72  45  37 W8        29.95R
VILLAHERMOSA   CLEAR     66  63  88 CALM      29.94R

CENTRAL AMERICA

CITY           SKY/WX    TMP DP  RH WIND       PRES   REMARKS

CARIBBEAN

CITY           SKY/WX    TMP DP  RH WIND       PRES   REMARKS
ARUBA          PTCLDY    79  70  73 E7        29.89R
CURACAO        PTCLDY    79  68  69 E8        29.92R
KINGSTON       PTCLDY    79  68  69 S9        29.86S
NASSAU         LGT RAIN  75  70  83 SE14      29.71S
SAN JUAN       PTCLDY    77  70  78 SE5       29.92R
SANTO DOMINGO  PTCLDY    73  68  83 E7        29.89S
ST. CROIX      MOCLDY    73  68  83 N7        29.92
ST. MAARTEN    MOCLDY    77  70  78 VRB3      29.92R
ST. THOMAS     CLEAR     75  66  73 E6        29.90

$$





USA.gov is the U.S. government's official web portal to all federal, state and local government web resources and services.